This is the latest recevied weather packets stored in our database for station/object KE8WMS. If no packets are shown the sender has not sent any weather packets the latest 10 day(s).
| Time | Temp. | Humidity | Pressure | Rain* | Wind** | Luminosity | Snow |
|---|---|---|---|---|---|---|---|
| 1787786960 | 24.44° C | 67% | 1008.6 hPa | 0 mm | - | 25 W/m² | - |
| 1787786655 | 24.44° C | 67% | 1008.7 hPa | 0 mm | - | 30 W/m² | - |
| 1787786354 | 24.44° C | 66% | 1008.2 hPa | 0 mm | - | 34 W/m² | - |
| 1787786051 | 24.44° C | 65% | 1008.4 hPa | 0 mm | - | 36 W/m² | - |
| 1787785746 | 24.44° C | 68% | 1008.6 hPa | 0 mm | - | 37 W/m² | - |
| 1787785441 | 25° C | 65% | 1008.7 hPa | 0 mm | - | 35 W/m² | - |
| 1787785140 | 25° C | 63% | 1008.9 hPa | 0 mm | - | 35 W/m² | - |
| 1787784836 | 25° C | 63% | 1009.2 hPa | 0 mm | - | 40 W/m² | - |
| 1787784534 | 25.56° C | 63% | 1008.7 hPa | 0 mm | - | 48 W/m² | - |
| 1787784229 | 25.56° C | 63% | 1008.9 hPa | 0 mm | - | 52 W/m² | - |
| 1787783924 | 25.56° C | 63% | 1008.8 hPa | 0 mm | - | 56 W/m² | - |
| 1787783620 | 25.56° C | 62% | 1009.1 hPa | 0 mm | - | 63 W/m² | - |
| 1787783319 | 25.56° C | 64% | 1008.8 hPa | 0 mm | - | 70 W/m² | - |
| 1787783016 | 25.56° C | 64% | 1008.7 hPa | 0 mm | - | 72 W/m² | - |
| 1787782714 | 25.56° C | 62% | 1008.7 hPa | 0 mm | - | 74 W/m² | - |
| 1787782410 | 26.11° C | 63% | 1008.8 hPa | 0 mm | - | 77 W/m² | - |
| 1787782105 | 25.56° C | 61% | 1009.1 hPa | 0 mm | - | 80 W/m² | - |
| 1787781800 | 26.11° C | 61% | 1009 hPa | 0 mm | - | 85 W/m² | - |
| 1787781499 | 26.11° C | 61% | 1009 hPa | 0 mm | - | 89 W/m² | - |
| 1787781198 | 26.11° C | 62% | 1009 hPa | 0 mm | - | 183 W/m² | - |
| 1787780897 | 26.11° C | 60% | 1009.2 hPa | 0 mm | - | 214 W/m² | - |
| 1787780592 | 26.67° C | 60% | 1009 hPa | 0 mm | - | 226 W/m² | - |
| 1787780287 | 26.67° C | 59% | 1009 hPa | 0 mm | - | 182 W/m² | - |
| 1787779982 | 26.67° C | 59% | 1009.2 hPa | 0 mm | - | 258 W/m² | - |
| 1787779677 | 26.67° C | 58% | 1009.1 hPa | 0 mm | - | 98 W/m² | - |
* Rain latest hour (hover to see other rain measurements)
** Current wind speed in m/s (hover to see current wind gust speed)